TimePST,TemperatureF,Dew PointF,Humidity,Sea Level PressureIn,VisibilityMPH,Wind Direction,Wind SpeedMPH,Gust SpeedMPH,PrecipitationIn,Events,Conditions,WindDirDegrees,DateUTC
12:53 AM,46.9,45.0,93,30.15,10.0,NW,3.5,-,N/A,,Clear,320,2012-11-14 08:53:00
1:53 AM,44.1,43.0,96,30.16,10.0,South,3.5,-,N/A,,Clear,170,2012-11-14 09:53:00
2:53 AM,44.1,43.0,96,30.17,9.0,Calm,Calm,-,N/A,,Clear,0,2012-11-14 10:53:00
3:53 AM,44.1,43.0,96,30.15,10.0,Calm,Calm,-,N/A,,Clear,0,2012-11-14 11:53:00
4:53 AM,44.1,43.0,96,30.14,10.0,Calm,Calm,-,N/A,,Clear,0,2012-11-14 12:53:00
5:53 AM,45.0,43.0,93,30.14,10.0,Calm,Calm,-,N/A,,Clear,0,2012-11-14 13:53:00
6:53 AM,44.1,43.0,96,30.15,8.0,Calm,Calm,-,N/A,,Clear,0,2012-11-14 14:53:00
7:53 AM,44.1,43.0,96,30.17,10.0,Calm,Calm,-,N/A,,Clear,0,2012-11-14 15:53:00
8:53 AM,53.1,46.9,80,30.16,10.0,Calm,Calm,-,N/A,,Clear,0,2012-11-14 16:53:00
9:53 AM,57.9,50.0,75,30.17,10.0,SW,3.5,-,N/A,,Clear,220,2012-11-14 17:53:00
10:53 AM,59.0,48.9,69,30.17,10.0,Variable,3.5,-,N/A,,Clear,0,2012-11-14 18:53:00
11:53 AM,62.1,48.9,62,30.14,10.0,Calm,Calm,-,N/A,,Clear,0,2012-11-14 19:53:00
12:53 PM,64.9,48.0,54,30.11,10.0,Calm,Calm,-,N/A,,Clear,0,2012-11-14 20:53:00
1:53 PM,66.0,48.9,54,30.09,10.0,Calm,Calm,-,N/A,,Clear,0,2012-11-14 21:53:00
2:53 PM,66.9,48.9,52,30.07,10.0,NW,3.5,-,N/A,,Clear,310,2012-11-14 22:53:00
3:53 PM,66.9,48.9,52,30.07,10.0,SW,3.5,-,N/A,,Clear,230,2012-11-14 23:53:00
4:53 PM,63.0,48.9,60,30.07,10.0,Calm,Calm,-,N/A,,Clear,0,2012-11-15 00:53:00
5:53 PM,55.9,48.0,75,30.07,10.0,NE,4.6,-,N/A,,Clear,50,2012-11-15 01:53:00
6:53 PM,55.0,48.9,80,30.07,10.0,NE,3.5,-,N/A,,Clear,40,2012-11-15 02:53:00
7:53 PM,54.0,48.9,83,30.07,10.0,Calm,Calm,-,N/A,,Clear,0,2012-11-15 03:53:00
8:53 PM,52.0,48.0,86,30.07,10.0,Calm,Calm,-,N/A,,Clear,0,2012-11-15 04:53:00
9:53 PM,52.0,48.9,89,30.07,10.0,Calm,Calm,-,N/A,,Clear,0,2012-11-15 05:53:00
10:53 PM,48.9,48.0,97,30.07,9.0,Calm,Calm,-,N/A,,Clear,0,2012-11-15 06:53:00
11:53 PM,46.9,45.0,93,30.06,10.0,NE,3.5,-,N/A,,Clear,40,2012-11-15 07:53:00